Wind_Gust
6 6 6 9 12 13 12 9 12 12 11 9 6 5 6 6 11 10 11 9 14 16 6 8 21 24 24 26 24 20 15 14 15 16 16 15 15 14 14 14 14 14 19 10 12 11 10 8 7 7 9 9 9 11 11 11 10 12 14 13 12 10 10 11 11 11 11 9 7 4 7 7 7 8 6 9 7 9 8 8 8 8 8 8 14 20
10 9 11 14 14 13 10 8 5 5 6 6 7 6 11 3 8 7 8 12 12 13 5 14 18 20 24 20 20 17 17 18 20 19 16 17 14 13 14 16 16 17 13 11 9 8 8 8 6 7 7 11 13 11 12 13 13 12 11 12 12 10 11 11 11 11 11 7 9 9 9 7 6 7 9 7 6 7 7 8 7 8 8 10 14 17
7 9 15 13 14 9 7 6 9 7 8 7 7 6 9 12 7 12 10 11 11 15 3 16 20 18 22 22 20 23 27 24 22 25 26 24 19 16 16 15 16 15 16 13 14 9 9 8 7 7 7 9 11 12 13 11 13 13 13 11 10 11 11 10 10 10 10 7 5 7 8 9 6 4 4 5 4 6 7 6 7 7 8 9 11 17
6 10 19 15 6 5 8 9 11 11 10 11 12 13 11 8 12 11 11 8 15 11 13 10 19 14 11 11 24 18 13 10 10 10 12 11 18 19 20 20 18 15 15 18 16 15 11 12 11 9 10 10 10 12 11 13 14 12 13 10 10 11 10 10 10 10 6 5 5 5 6 5 6 5 6 5 5 5 5 7 6 6 7 8 9 12
14 9 3 8 8 9 7 7 12 14 12 6 9 8 10 6 5 8 8 8 4 12 12 16 16 11 11 16 13 12 12 15 12 9 9 12 13 14 13 13 17 20 18 18 16 14 13 12 14 13 10 9 10 12 13 14 16 15 13 11 10 10 10 8 10 8 7 6 5 6 7 6 6 7 6 3 4 4 5 6 5 9 6 7 9 9
10 12 4 6 7 8 10 10 7 15 12 10 6 9 8 6 8 7 6 11 17 12 9 13 12 10 11 17 22 12 17 17 15 15 14 14 13 22 19 17 16 16 14 19 19 18 15 13 8 8 9 10 10 12 12 12 13 11 10 10 10 9 8 8 7 7 8 7 8 6 6 5 5 7 6 11 12 10 9 12 6 4 6 7 8 8
8 5 3 5 8 6 8 6 5 8 10 10 9 8 7 9 7 7 9 11 10 9 10 7 13 13 9 15 15 11 13 16 11 16 17 16 19 20 17 20 24 24 21 16 14 13 12 11 10 9 10 11 12 11 11 11 10 10 10 10 11 10 10 9 8 8 9 7 7 7 7 7 8 8 9 6 6 7 8 5 6 7 5 6 6 7
7 7 8 9 7 6 6 6 7 12 14 7 6 8 6 8 7 6 9 8 7 6 7 9 10 11 8 17 8 14 20 17 15 17 17 19 20 22 24 23 21 25 20 20 20 19 15 14 16 15 12 12 13 11 9 11 10 10 11 11 11 10 11 10 10 10 10 10 8 7 6 7 7 8 10 7 7 6 6 7 9 8 8 7 6 6
3 5 4 5 5 6 5 9 7 8 8 10 5 10 6 4 6 7 8 7 3 5 10 11 7 11 11 13 8 16 14 12 19 23 23 20 19 21 22 25 24 21 23 24 24 22 21 19 14 11 11 11 10 10 12 12 12 11 10 11 10 11 10 10 11 11 10 10 10 10 9 8 8 8 10 8 6 7 7 8 9 8 10 9 8 8
9 10 7 7 4 8 9 6 10 11 8 6 10 11 9 8 9 7 7 9 5 9 10 9 4 12 15 11 10 4 12 20 23 23 22 22 23 25 25 22 20 18 16 16 18 18 16 12 10 10 9 8 9 10 9 8 9 9 9 10 11 11 11 11 11 12 11 10 10 10 9 9 10 8 9 7 9 9 7 9 10 9 9 10 9 8
11 9 10 8 10 10 8 7 7 7 4 8 9 7 9 13 9 8 12 6 11 7 13 8 5 8 13 14 18 21 21 27 21 13 14 16 17 19 21 22 22 21 19 18 16 16 14 10 9 7 9 9 8 8 10 10 10 9 10 10 12 13 12 10 12 11 12 11 11 12 11 11 10 9 8 8 8 8 6 9 10 9 10 9 10 8
11 8 6 9 8 6 5 7 6 5 4 9 8 6 10 11 16 12 10 11 7 13 10 8 4 5 11 12 15 22 12 17 23 23 23 22 24 26 24 24 20 19 18 16 14 13 12 10 11 10 14 13 12 10 11 11 10 10 10 10 11 10 10 10 11 11 11 11 12 11 11 12 11 10 9 9 9 8 9 10 12 11 8 9 9 8
11 10 6 11 6 11 5 7 10 12 11 14 10 15 10 11 15 11 12 10 9 11 4 4 5 5 11 18 22 25 24 20 21 27 28 27 27 25 23 22 19 17 13 14 14 14 14 17 18 16 14 12 11 13 12 13 12 11 11 11 12 12 10 11 10 12 12 11 11 12 11 10 10 10 9 9 8 6 9 10 10 8 10 9 9 10
13 9 8 8 7 4 11 12 6 6 6 9 9 9 10 6 7 7 11 7 11 14 9 3 5 9 11 16 12 21 24 24 26 22 23 25 26 25 24 20 16 15 15 16 16 16 17 19 18 16 13 13 13 12 13 11 12 12 12 12 13 13 11 10 10 11 11 12 12 11 11 11 9 9 9 9 9 9 8 9 10 11 12 12 13 12
5 16 11 5 6 6 9 14 19 14 10 9 7 12 14 15 13 11 10 11 11 14 10 7 9 13 3 9 4 16 14 12 21 23 19 22 24 24 21 16 13 12 12 13 15 18 17 18 17 17 16 15 15 15 15 12 11 11 12 13 14 12 10 10 11 10 11 12 10 9 10 10 8 9 9 9 9 8 8 8 9 10 10 11 11 12
9 16 15 8 7 8 8 5 8 10 10 4 6 12 12 10 15 10 15 11 8 7 11 8 13 11 14 7 9 6 10 10 9 13 11 14 11 7 9 12 14 15 15 13 15 16 16 15 16 16 16 19 19 18 16 14 11 12 14 13 14 15 13 12 11 11 12 11 10 9 9 10 10 9 8 7 5 7 7 7 8 7 7 9 10 10
6 10 6 11 7 3 7 7 6 9 10 9 6 7 8 10 17 12 6 3 4 10 14 6 15 14 16 11 5 10 6 10 8 7 8 12 9 8 12 14 15 16 15 14 17 18 18 13 16 19 19 19 19 17 17 17 15 15 14 12 12 11 9 11 12 12 11 11 9 8 9 8 7 8 9 10 9 9 7 7 8 7 7 6 7 8
12 12 8 5 4 7 5 5 5 6 11 17 7 13 7 6 11 11 10 9 7 8 18 4 9 11 10 17 10 9 7 11 9 7 12 10 10 14 17 18 19 18 19 20 20 17 18 20 22 20 20 21 22 21 20 19 15 15 14 13 14 12 12 13 12 12 11 10 9 8 8 7 8 9 8 8 9 8 8 7 7 6 6 7 8 7
11 13 11 6 5 8 9 8 9 4 4 10 8 10 8 11 8 10 11 8 7 11 13 8 6 10 9 14 8 7 7 10 11 7 6 8 12 18 19 20 18 15 12 13 15 16 17 19 21 22 22 21 21 21 22 22 19 15 12 14 15 16 16 14 13 10 10 9 9 9 9 8 7 6 6 6 7 8 8 8 7 7 7 6 5 6
6 11 15 8 5 5 8 10 11 8 11 6 7 7 3 12 8 8 15 10 10 10 5 12 4 15 15 14 11 10 10 12 11 8 13 16 18 18 17 17 16 14 15 17 18 19 21 23 23 24 23 22 21 19 19 17 15 15 17 16 15 14 12 10 11 11 11 10 9 9 7 6 7 7 8 9 9 9 8 7 8 7 5 7 6 6
9 7 10 10 7 8 9 9 12 15 10 8 7 6 6 6 7 10 5 9 10 13 11 12 12 17 16 15 11 12 12 14 14 16 15 15 18 18 18 20 17 15 15 17 19 20 21 21 21 21 20 21 18 16 16 17 19 21 18 16 17 18 16 15 14 12 12 11 9 10 8 8 7 9 8 8 8 9 7 6 6 6 6 6 6 7
8 7 13 10 7 7 13 11 11 14 13 15 18 14 16 10 7 5 17 6 7 11 15 10 24 18 20 8 15 14 14 11 13 12 13 13 13 15 18 16 17 17 17 19 19 18 18 17 17 17 16 14 14 16 18 19 17 17 17 21 22 20 17 16 15 14 13 10 10 9 9 9 9 10 9 9 8 8 8 7 7 7 7 7 6 7
9 11 7 8 14 14 13 9 7 7 7 10 14 13 9 7 12 10 10 14 7 12 10 10 10 19 18 11 14 15 13 13 11 12 13 12 13 13 17 17 15 19 21 20 19 19 18 18 19 20 20 20 21 21 20 19 19 21 20 20 17 17 16 16 16 13 12 12 11 11 13 13 9 8 8 8 7 7 7 7 7 7 8 8 8 6
9 10 7 9 12 11 9 9 6 5 5 4 6 6 9 10 12 16 17 14 13 8 8 9 15 22 12 7 11 11 9 9 8 9 13 14 15 14 13 14 15 14 15 13 14 12 13 11 10 11 13 17 18 19 20 23 23 22 19 17 16 18 18 29 26 17 14 17 19 24 24 21 20 16 9 9 8 8 6 6 6 7 8 8 8 8
9 9 9 7 11 15 15 13 9 10 11 8 7 7 5 7 7 6 9 5 9 12 13 13 24 16 13 8 8 5 7 9 11 11 12 14 15 14 13 13 12 13 14 12 13 13 11 11 15 19 20 21 22 22 22 20 22 15 13 15 18 25 30 26 25 23 21 21 22 22 20 19 20 19 17 9 7 8 6 6 6 6 8 8 7 7
9 9 12 11 15 14 14 9 14 12 11 8 4 4 5 10 10 6 7 6 12 8 5 13 19 17 16 11 9 8 7 10 11 9 8 13 14 14 13 13 13 11 15 16 14 11 15 19 20 18 18 19 20 22 21 19 14 17 22 21 17 22 19 19 22 21 22 24 24 23 23 19 15 18 19 13 8 9 9 8 8 8 6 8 8 6
11 6 9 14 15 16 17 15 10 6 5 9 8 7 10 5 5 7 10 9 17 11 11 14 14 10 12 9 8 10 6 10 13 9 10 11 13 14 12 14 13 14 15 15 17 18 12 9 15 18 18 19 18 17 15 18 20 22 18 15 17 23 19 20 16 20 21 18 16 19 19 19 19 16 12 13 16 16 13 10 9 9 9 8 9 9
6 7 7 7 11 15 13 11 10 10 12 9 8 9 6 5 8 9 11 19 11 9 19 13 9 10 14 13 13 13 13 12 12 14 14 12 13 16 16 13 12 11 12 8 6 10 16 18 16 16 17 16 16 15 14 15 25 28 22 23 26 24 20 23 17 17 21 21 21 20 18 16 14 12 11 12 12 14 13 12 10 10 7 8 9 9
9 9 7 5 8 9 8 10 9 7 8 10 9 8 8 9 6 10 11 13 9 14 26 10 12 14 12 14 18 18 16 16 16 17 19 18 11 7 7 10 13 15 14 10 14 15 15 15 16 17 17 18 15 16 17 17 17 19 19 19 21 24 22 21 21 20 22 21 21 19 16 14 13 12 13 14 13 12 11 12 11 9 9 8 8 8
8 8 6 5 7 5 6 7 6 7 6 6 8 9 10 9 12 15 14 11 14 15 14 15 13 20 20 17 17 18 16 17 16 13 8 6 11 14 13 14 15 15 15 16 16 17 17 18 17 18 19 17 18 19 19 18 17 19 21 19 17 22 22 22 22 24 23 24 24 20 16 15 13 14 14 12 13 14 13 12 11 10 9 9 9 8
7 17 6 3 4 7 7 6 4 5 8 12 8 8 10 9 12 10 10 10 11 15 13 19 20 25 23 18 22 17 14 9 9 14 18 15 11 12 15 16 16 16 17 18 17 17 18 17 17 16 16 18 20 21 22 20 19 16 16 16 17 21 23 25 24 22 22 25 22 19 17 17 17 13 14 15 14 11 12 12 11 10 9 9 9 9
4 11 4 6 10 12 7 4 10 6 6 14 10 11 12 12 14 10 21 14 11 23 20 13 18 26 19 15 14 13 14 12 16 18 17 17 15 14 16 17 17 18 18 18 18 17 16 16 16 16 19 19 20 19 18 18 17 16 18 17 19 21 21 23 22 22 21 22 20 19 18 17 15 14 15 15 15 14 13 11 10 10 10 10 9 9
8 9 9 5 9 15 10 5 6 8 17 29 18 19 21 18 16 15 15 11 18 16 20 21 30 22 17 11 8 11 12 15 14 16 18 18 17 16 19 19 20 19 19 19 18 18 19 20 20 21 21 18 19 19 20 20 17 18 19 19 19 17 19 22 22 22 23 20 19 19 19 17 16 15 14 15 16 14 12 12 11 10 10 12 12 10
5 7 10 7 19 8 6 6 6 16 34 31 15 18 21 20 20 22 25 24 23 18 30 20 21 14 9 9 11 15 14 14 19 21 20 20 19 16 15 17 19 20 19 18 18 19 21 21 19 21 21 21 21 23 22 18 21 21 17 17 15 20 20 21 19 21 22 19 19 19 18 17 16 15 14 13 13 13 13 13 14 13 11 10 9 11
6 7 8 9 14 14 6 7 13 33 38 7 5 6 8 11 9 19 21 16 14 11 15 21 22 19 19 17 16 18 18 17 13 15 16 16 14 15 17 18 19 18 19 19 17 16 17 20 20 18 17 17 19 17 14 14 16 11 12 16 19 19 19 20 20 20 18 19 18 17 17 16 14 15 13 11 12 13 14 15 12 10 11 12 13 14
10 12 11 12 12 9 10 11 28 39 8 8 13 10 9 5 7 3 16 17 16 19 18 17 17 18 16 17 16 16 17 18 15 16 20 22 15 17 15 17 18 18 19 19 20 21 20 19 21 21 23 22 16 14 15 17 14 13 15 14 17 17 19 19 19 19 16 17 18 17 16 17 16 15 14 14 14 15 15 13 13 14 12 11 11 9
16 10 12 18 11 27 13 15 34 20 30 19 20 17 14 16 13 14 25 22 13 9 10 10 12 15 14 14 16 15 10 7 9 22 16 17 16 16 19 20 20 21 22 21 20 22 21 19 18 19 15 10 12 14 16 15 13 15 12 14 16 17 17 17 18 18 18 18 18 18 20 21 20 18 16 15 15 14 13 13 13 12 10 11 12 12
16 24 16 20 25 17 16 24 25 23 38 17 11 18 15 10 10 12 10 19 13 14 8 7 11 19 18 17 15 13 7 6 14 18 17 10 13 14 16 17 15 12 12 15 9 9 9 10 12 13 15 14 14 17 16 14 14 14 14 15 13 15 15 17 20 19 19 19 18 19 19 18 20 19 17 15 17 18 19 18 16 13 13 15 15 14
8 7 9 23 18 11 16 27 33 33 32 10 12 9 8 9 9 9 10 23 12 9 12 8 13 16 15 16 18 10 5 8 15 18 20 14 15 9 13 16 15 14 12 13 14 14 13 12 14 14 12 11 13 15 12 12 13 15 15 15 15 16 17 18 20 19 21 22 21 19 19 19 20 22 22 21 20 18 17 16 17 15 13 15 13 16
10 6 12 13 21 20 19 23 32 32 30 9 8 6 10 10 8 10 13 20 10 16 14 11 13 15 16 12 10 7 10 9 14 22 18 18 14 13 12 13 11 12 13 8 7 8 8 7 6 8 11 13 18 15 13 12 14 14 15 15 15 15 17 20 22 22 20 17 16 16 16 16 17 18 20 22 16 14 17 16 13 12 13 14 13 14
10 9 9 25 21 18 19 28 21 29 16 8 7 7 12 13 12 17 23 14 13 15 15 10 15 14 11 13 8 12 16 17 18 21 23 20 14 11 8 8 11 9 10 9 9 8 10 10 13 15 16 18 15 9 10 11 14 15 14 14 14 18 21 21 17 16 17 18 17 16 18 19 20 20 18 18 20 21 18 16 16 13 12 13 12 10
6 14 11 10 12 19 18 24 32 20 13 6 6 10 8 13 21 22 15 9 10 14 17 14 15 15 12 15 9 13 17 16 18 16 15 9 9 14 12 7 7 4 2 3 6 8 7 8 7 5 5 6 12 12 12 13 14 13 11 12 16 19 19 13 14 16 17 16 18 18 19 17 15 17 21 19 17 14 16 15 13 13 14 10 9 10
19 20 13 15 13 13 18 19 17 26 10 9 10 9 9 16 14 9 16 13 11 14 12 15 12 14 12 16 14 13 14 16 13 13 15 13 12 13 14 15 9 9 7 5 3 4 11 8 9 12 12 10 10 12 13 15 14 12 11 15 19 17 13 13 14 16 17 16 15 16 18 18 20 20 16 15 15 14 15 12 12 10 10 10 10 10
10 16 15 15 15 18 17 27 25 9 7 7 13 10 8 9 13 13 8 18 14 10 12 12 11 13 14 14 14 16 14 12 16 16 17 15 14 14 15 15 15 15 7 5 6 10 8 11 10 11 8 10 10 10 11 15 13 11 13 18 17 13 13 15 15 15 17 17 19 16 16 17 17 17 15 16 15 13 12 11 11 10 11 11 11 11
11 14 10 14 7 16 16 11 11 9 8 9 9 15 12 13 12 14 15 18 20 21 14 14 14 12 10 14 16 13 11 11 11 9 9 13 12 11 13 14 12 13 13 13 10 10 8 13 13 9 6 7 9 9 11 11 15 12 16 14 8 12 13 13 12 13 14 15 15 18 17 15 15 16 14 13 14 14 14 11 11 12 9 10 10 9
6 12 8 6 13 9 12 19 16 15 14 13 11 13 17 17 17 16 16 18 19 19 15 17 18 17 13 10 13 14 14 13 13 15 12 11 11 11 10 13 12 10 10 10 10 8 12 7 6 8 9 8 7 9 10 10 14 16 15 8 12 13 14 14 14 14 15 14 14 15 14 14 13 12 13 13 13 15 14 16 15 14 11 10 10 10
6 8 10 13 9 5 20 7 11 18 18 18 17 17 15 17 18 13 14 18 20 19 18 16 17 17 18 12 11 15 19 20 16 14 12 13 13 12 11 11 13 11 11 13 12 9 9 8 10 10 10 12 10 10 10 10 12 17 12 13 13 14 15 16 17 15 14 16 14 13 14 16 15 13 12 12 12 11 12 11 13 12 12 12 13 12
9 7 9 8 7 9 16 11 14 13 14 14 15 14 16 17 17 16 17 18 18 17 15 18 14 16 14 14 12 12 13 13 12 15 16 15 15 16 16 16 14 16 16 10 10 12 10 11 11 11 10 13 14 12 12 11 14 14 13 13 14 14 15 16 17 18 17 17 16 16 16 17 15 18 15 15 15 14 11 10 12 14 16 16 16 14
8 9 11 9 15 12 9 12 18 17 14 16 15 13 16 17 17 18 16 13 13 14 16 16 12 15 12 13 11 11 13 14 9 8 15 16 13 14 13 16 17 15 15 17 15 10 15 12 12 12 12 15 13 13 12 13 15 13 13 13 14 14 16 17 15 16 14 15 14 16 15 16 17 18 17 15 13 14 17 19 17 17 15 14 14 17
5 14 7 5 16 16 18 19 6 17 16 12 13 15 13 10 10 14 14 15 13 14 15 15 20 12 11 12 12 11 14 15 14 11 12 10 10 11 14 13 13 14 15 14 11 11 12 13 15 14 14 17 11 10 13 14 14 12 11 12 13 14 17 15 15 13 15 15 16 15 15 14 15 14 14 15 15 13 10 6 6 10 17 17 12 13
16 14 10 19 17 26 15 16 10 12 11 14 17 17 16 14 9 11 15 17 18 16 14 13 15 17 15 15 12 13 14 15 17 13 14 15 17 14 15 15 15 15 16 14 14 15 13 14 11 11 13 18 11 12 14 14 14 12 11 13 14 16 16 16 16 15 14 15 15 18 18 15 14 14 15 15 15 14 14 13 9 8 10 10 9 11
Wind_Speed
1 2 1 3 5 5 2 2 2 2 3 4 3 2 2 0 5 4 2 3 2 6 0 2 1 3 6 6 5 7 7 6 9 9 7 7 6 7 8 8 8 8 4 5 7 7 6 5 5 3 3 4 4 4 5 6 6 6 6 7 8 6 7 6 5 5 6 4 3 1 4 4 4 4 4 4 4 5 4 4 5 5 5 5 4 4
3 3 4 7 8 5 1 1 1 3 3 3 4 2 2 0 2 2 1 5 6 2 1 1 1 1 2 2 5 6 8 11 10 8 9 8 7 6 7 9 9 8 4 6 4 4 4 4 4 5 4 7 8 7 7 8 8 6 6 8 6 6 7 7 6 5 6 4 4 4 4 3 3 4 4 4 4 4 4 4 4 4 5 5 5 4
2 2 5 6 3 3 3 4 4 4 4 4 3 3 2 0 3 7 1 3 4 3 1 0 2 3 3 2 6 8 9 4 5 7 9 7 8 7 7 8 8 7 6 5 5 6 5 6 5 4 4 6 7 8 9 8 8 9 8 7 6 5 5 6 6 6 5 3 2 2 3 4 2 1 0 1 1 3 4 4 4 4 5 6 5 6
1 5 8 4 4 3 3 5 5 6 6 6 3 3 2 2 2 1 2 4 7 2 6 1 3 2 1 1 4 6 7 5 4 7 8 7 9 9 9 6 6 7 9 7 5 7 7 8 7 6 6 6 6 7 7 8 9 7 7 7 6 6 6 6 6 6 2 2 3 3 4 3 3 2 2 2 2 2 3 3 4 3 4 5 6 6
3 3 2 5 4 4 4 2 4 6 3 2 3 3 1 0 1 3 1 3 1 5 5 6 4 3 0 2 3 3 4 6 4 4 6 7 7 6 6 7 7 9 7 8 3 4 6 7 7 8 7 6 7 8 8 8 8 7 8 7 7 6 6 5 6 5 4 4 3 3 4 3 4 4 3 2 0 0 1 2 3 5 4 5 5 5
3 3 2 4 4 5 5 2 2 9 3 2 3 5 5 2 2 1 2 3 7 2 4 1 1 3 3 4 6 2 3 7 3 5 9 8 6 5 8 11 9 9 7 8 8 3 4 4 3 3 5 7 6 7 8 7 8 7 6 6 6 5 5 5 5 5 5 4 5 4 3 2 1 1 1 3 5 3 3 4 1 2 4 5 5 5
2 1 0 2 5 3 2 2 3 3 5 3 3 5 4 5 3 3 1 3 1 1 2 1 4 3 4 4 5 3 4 6 2 6 9 7 7 7 9 9 9 11 10 5 4 3 4 4 5 4 6 7 8 7 7 7 6 6 6 7 7 6 6 5 5 6 5 4 3 4 5 4 4 4 3 2 3 4 3 3 3 2 2 4 4 5
0 1 5 5 5 3 2 0 3 7 7 1 2 5 4 4 4 4 4 3 1 1 1 5 3 2 2 5 3 3 5 5 6 9 10 9 7 9 9 9 10 11 10 7 4 3 5 7 8 9 8 7 8 7 6 7 6 7 7 7 7 6 6 6 6 6 6 6 4 4 3 4 4 5 5 4 4 3 3 3 4 2 3 3 3 4
1 1 1 2 2 2 2 4 5 5 3 3 2 7 4 2 2 4 3 3 0 1 4 2 2 0 3 4 4 1 4 7 10 11 12 12 10 9 10 10 11 11 9 7 7 4 5 6 6 6 7 8 7 7 8 7 7 7 6 7 6 7 7 6 7 7 6 6 6 6 5 4 4 5 5 3 1 1 2 3 2 2 3 2 3 3
3 4 3 4 2 3 4 2 7 8 1 1 6 7 6 5 6 2 2 4 0 2 4 4 1 2 6 5 2 2 2 8 10 13 14 13 11 10 10 10 11 9 8 7 7 4 3 6 5 5 4 4 6 6 6 6 6 6 6 7 7 7 6 7 7 7 7 7 6 6 6 6 5 4 3 3 4 3 3 3 4 3 3 3 3 3
2 5 3 2 4 4 2 0 3 4 1 4 5 4 4 8 4 2 6 2 3 1 5 3 1 3 3 4 6 6 8 9 10 7 7 8 9 10 10 11 11 10 9 8 6 5 4 3 5 5 5 5 4 5 6 6 6 6 6 7 8 8 7 7 8 7 8 7 7 7 7 7 6 6 5 4 4 3 3 4 4 4 4 3 3 3
4 1 1 2 3 3 3 3 4 2 2 5 2 2 2 1 7 3 4 5 1 4 4 2 1 2 4 4 4 9 6 4 6 8 9 10 11 13 12 12 11 8 6 5 5 6 4 2 4 5 5 6 6 4 5 5 5 6 6 7 8 7 7 6 7 7 7 7 7 7 8 8 7 6 5 6 5 5 5 4 4 2 2 3 2 3
2 3 1 6 3 8 2 4 1 5 3 4 5 6 3 2 4 2 3 2 3 4 0 1 1 1 4 8 7 5 9 10 7 8 10 10 10 10 10 11 6 4 5 6 7 5 5 6 4 5 6 5 6 7 8 8 7 7 6 8 8 8 7 7 7 8 8 7 7 7 7 7 6 6 6 5 5 4 4 4 4 3 3 2 2 4
6 4 3 2 2 1 6 6 1 1 1 4 4 4 4 1 1 2 3 1 5 5 3 1 1 2 4 8 6 9 10 6 5 6 6 5 7 8 7 3 2 5 5 6 6 6 7 7 5 5 6 7 7 7 7 7 7 7 7 8 8 9 8 7 7 7 7 8 8 7 7 7 6 6 6 6 6 5 5 5 3 3 4 3 4 4
1 5 4 2 1 0 3 7 10 6 6 4 2 6 6 7 3 2 3 3 4 5 2 3 1 4 1 3 1 6 7 8 6 5 4 5 7 7 6 4 4 5 6 6 6 8 8 8 6 6 7 7 6 7 7 7 7 7 7 8 9 8 7 7 7 6 7 7 6 6 6 6 5 6 5 6 6 5 5 5 5 4 3 3 4 4
3 5 7 3 1 4 4 1 5 6 5 0 2 5 5 4 6 2 3 3 1 1 1 1 4 3 4 3 6 4 6 6 4 3 2 6 5 5 6 7 6 5 6 6 7 7 8 8 6 6 7 8 6 6 6 7 7 8 9 8 9 10 9 8 8 8 8 7 6 5 6 6 6 5 5 4 3 4 5 5 5 5 4 4 3 4
2 2 2 7 2 1 1 4 0 3 2 2 2 3 3 2 9 6 1 1 0 3 4 0 6 6 7 6 3 6 4 6 5 4 3 5 4 3 7 7 6 6 6 7 8 9 9 6 6 8 8 8 7 5 7 9 9 10 9 7 8 7 5 7 8 8 6 6 5 6 6 5 5 5 6 6 6 6 4 5 5 5 4 4 2 3
5 5 3 1 0 2 1 1 3 3 4 7 1 5 2 2 5 4 2 2 3 2 5 1 4 6 4 4 5 6 3 7 6 5 3 4 4 5 8 6 7 8 7 6 6 6 5 5 7 7 7 8 9 8 7 8 8 8 8 8 8 7 8 7 6 5 5 5 5 5 5 4 5 6 5 5 6 5 5 4 3 3 3 3 2 2
3 2 4 1 1 4 4 1 4 2 2 4 2 5 2 1 0 3 4 0 0 2 3 2 1 4 4 5 4 4 4 6 7 4 1 5 5 8 8 9 6 5 4 6 8 8 8 8 9 9 11 10 10 9 8 7 6 6 6 6 8 9 9 8 6 4 4 5 5 5 6 6 5 4 4 4 5 5 5 5 4 4 3 3 2 2
1 2 5 2 1 1 2 4 4 2 3 4 4 3 1 3 3 3 5 3 4 3 2 5 2 4 6 6 5 7 6 8 7 6 6 6 9 9 8 8 6 6 7 7 8 9 10 10 10 10 11 11 11 10 8 6 4 7 8 7 7 5 4 4 6 6 6 5 4 4 3 3 4 5 5 6 6 5 6 5 5 5 4 4 3 3
2 1 2 2 3 1 1 1 6 8 5 1 1 1 1 1 2 4 1 2 3 4 4 2 3 5 7 7 6 8 8 9 8 8 7 7 7 7 8 8 7 6 7 8 9 9 10 10 10 9 8 8 6 4 5 6 8 8 6 7 8 9 7 6 6 5 5 5 4 4 5 5 5 6 5 6 5 6 5 4 4 4 4 4 4 4
2 1 6 3 2 2 6 4 3 5 6 8 9 7 8 6 3 1 7 2 1 3 3 3 8 7 10 3 8 9 9 7 8 8 7 7 8 8 7 7 8 7 8 9 9 9 9 10 9 8 6 5 5 7 8 8 5 5 6 8 7 7 6 4 2 2 1 2 3 5 6 6 5 5 5 5 5 5 5 5 5 5 4 4 4 4
2 3 2 2 6 6 7 1 1 1 2 2 5 4 5 3 6 5 2 5 1 2 4 4 0 8 8 6 8 9 6 4 3 2 7 8 8 8 9 8 7 9 9 9 9 9 9 8 8 7 6 6 8 9 8 6 8 9 9 7 5 5 5 7 8 7 8 7 5 4 7 8 4 2 4 4 4 4 5 5 5 4 5 5 5 3
3 1 1 4 6 6 4 2 2 2 2 1 1 3 4 3 6 8 6 5 5 1 0 1 2 6 5 1 4 5 4 4 5 4 7 9 9 9 9 9 8 7 8 6 5 6 7 6 5 4 6 8 9 10 11 10 8 7 6 4 4 7 8 7 6 5 7 8 8 8 7 3 3 11 5 4 4 4 4 4 4 4 5 5 5 5
1 2 3 1 2 6 6 3 2 2 2 2 1 2 2 3 4 3 5 1 1 6 7 5 8 4 4 2 3 1 3 4 6 7 7 8 9 9 9 8 6 6 5 5 7 8 5 4 7 10 10 10 9 9 9 8 8 7 5 6 8 8 6 5 6 7 7 6 4 1 5 8 7 3 7 6 3 3 3 3 4 4 5 5 5 5
1 3 3 2 4 4 3 1 4 5 5 2 0 0 2 6 7 3 1 1 3 3 4 3 5 8 9 6 5 5 3 6 7 6 5 8 9 9 8 8 8 6 8 7 6 5 9 11 8 7 8 8 9 9 8 7 6 5 6 8 7 7 7 6 6 7 6 7 10 8 6 6 8 11 11 8 5 3 3 4 4 5 4 5 6 5
1 1 2 5 6 7 8 6 3 2 1 1 2 2 4 1 1 3 4 5 7 4 5 6 7 6 4 3 4 7 4 5 8 6 6 7 9 9 7 8 8 8 8 8 7 5 3 4 9 11 8 8 7 7 6 6 6 6 6 5 5 7 8 8 8 6 4 3 6 8 10 10 10 8 7 7 6 4 6 6 6 6 6 5 6 6
2 1 4 4 5 7 7 6 3 3 3 3 2 3 1 0 3 4 5 7 4 3 9 4 6 4 8 7 8 9 9 7 8 9 9 8 8 9 9 8 8 7 8 6 4 5 8 9 7 7 8 8 8 6 5 5 6 7 7 7 8 9 9 8 9 10 12 13 13 12 10 10 9 6 7 8 7 8 8 7 7 6 5 5 6 6
4 2 2 3 5 5 4 6 3 1 4 4 4 3 3 4 4 6 6 6 6 5 11 5 8 8 6 8 11 12 10 10 9 11 10 7 5 5 5 7 9 10 9 7 8 7 7 8 9 9 8 8 5 6 7 6 6 6 5 8 9 10 11 9 8 9 9 11 12 11 9 6 5 6 7 8 7 6 7 7 7 6 6 5 5 5
3 1 1 1 2 3 4 4 2 4 2 1 4 6 6 4 7 10 7 3 8 8 8 7 8 12 8 9 11 11 10 9 8 4 4 5 7 9 8 9 10 10 10 10 11 10 9 9 8 8 6 4 6 7 7 7 8 8 9 9 9 10 9 8 10 10 10 11 12 11 8 7 7 7 7 6 6 6 7 7 7 6 6 6 6 5
2 3 4 2 1 2 4 4 1 3 2 4 3 2 4 6 6 3 2 4 3 8 8 13 13 14 8 11 14 10 7 5 5 9 12 10 8 8 9 10 10 11 11 11 10 9 9 8 7 6 5 7 7 10 9 9 8 7 7 9 10 11 10 9 10 10 11 12 11 9 8 8 8 7 8 8 7 7 7 7 6 6 6 6 6 6
1 2 2 1 1 3 3 2 7 4 4 5 2 2 4 6 6 3 6 6 5 12 13 9 9 10 9 9 9 8 9 8 11 12 11 11 10 10 9 11 11 11 11 12 11 10 9 9 8 8 9 10 9 9 9 9 9 8 9 9 11 10 7 8 9 10 11 11 9 8 9 9 9 8 8 8 9 8 8 7 7 7 6 6 6 6
3 4 2 1 2 4 6 2 4 4 6 7 4 7 11 9 7 5 7 7 10 9 11 10 15 10 6 0 3 5 7 10 9 9 11 12 11 9 11 12 12 11 12 12 12 11 11 11 11 12 11 9 8 9 12 10 8 11 10 12 11 7 8 9 9 9 10 9 8 9 8 8 8 9 8 9 10 8 7 7 7 7 6 8 7 5
2 4 2 2 3 2 2 1 1 2 12 7 7 11 11 9 10 12 12 11 13 9 11 10 8 3 4 5 6 10 9 8 10 11 10 10 9 7 8 10 12 13 12 11 11 11 10 9 9 9 10 11 9 9 7 8 12 11 8 9 9 11 10 10 9 9 10 9 9 8 8 8 8 8 9 8 8 8 8 8 9 8 7 6 6 7
3 2 3 2 1 3 1 1 2 13 9 2 0 2 5 7 6 13 14 11 9 7 10 14 14 11 11 9 9 11 11 10 6 8 11 10 10 9 9 9 11 12 13 12 11 10 10 11 10 9 7 8 11 7 6 8 9 5 8 10 11 11 11 11 10 10 10 10 10 9 8 8 8 8 7 7 8 8 9 9 8 7 7 7 8 8
5 4 2 0 2 2 2 3 2 8 2 0 2 2 2 1 1 2 10 11 11 12 12 11 9 9 8 9 9 6 6 10 9 10 13 15 10 11 10 11 12 11 12 12 13 13 12 12 13 13 13 10 4 3 6 7 6 7 8 9 11 10 11 11 11 11 9 10 10 10 10 9 9 7 7 8 9 9 10 8 8 8 7 6 6 6
7 3 2 4 2 4 4 6 11 5 9 1 3 3 4 4 4 6 9 10 6 2 3 3 5 7 7 6 7 6 5 4 5 10 8 11 11 10 12 12 12 12 12 12 11 13 12 11 9 10 5 1 4 5 8 6 7 7 7 9 10 11 10 10 11 11 11 11 10 10 10 10 9 8 9 9 9 8 7 6 4 6 5 6 7 7
4 8 4 5 3 5 5 6 5 4 8 1 4 3 3 2 1 2 3 8 4 3 3 1 4 6 8 10 10 8 5 2 7 7 8 6 5 8 10 11 10 8 8 10 6 6 6 6 6 4 5 5 5 7 5 6 8 8 8 8 8 9 9 11 12 12 11 11 11 11 10 10 9 9 9 9 11 11 10 10 9 7 6 8 8 8
2 1 4 8 2 2 2 5 6 5 5 3 2 3 4 3 0 2 1 7 2 6 8 4 7 7 7 8 11 7 2 2 6 8 9 8 10 5 9 10 10 9 8 8 8 8 8 7 5 4 4 5 7 8 5 6 8 8 8 8 8 9 10 11 12 12 13 13 12 9 8 7 7 8 8 10 10 8 5 3 5 7 7 8 7 9
4 1 3 1 2 3 3 4 8 2 1 1 2 1 3 3 1 2 4 4 2 6 5 5 7 8 8 7 6 4 1 2 7 11 11 12 9 8 6 9 7 8 9 5 4 5 4 3 2 2 4 5 11 4 5 6 7 7 8 8 8 9 10 12 13 13 12 10 8 8 8 8 9 9 10 10 7 6 7 5 7 7 8 8 8 8
2 1 2 8 6 5 6 6 3 4 2 2 1 3 5 2 5 1 9 3 3 4 5 3 6 7 5 7 3 5 4 6 9 13 15 14 9 8 5 5 8 6 7 5 6 4 4 5 7 8 9 8 3 3 5 6 6 7 7 6 7 10 12 13 11 9 8 8 8 9 10 9 11 12 10 10 10 8 5 6 9 8 8 8 7 6
1 1 2 2 3 6 5 6 7 3 1 1 3 4 3 2 5 7 1 3 5 7 6 3 5 7 7 7 5 5 9 9 10 10 10 7 5 6 8 4 0 0 1 1 2 5 4 4 4 2 3 3 3 4 5 6 6 7 4 5 8 12 12 8 7 7 7 9 10 10 9 9 8 9 9 8 8 8 9 9 8 8 8 6 6 6
5 4 4 4 2 1 2 3 2 7 0 3 4 2 3 0 2 3 7 8 6 8 8 6 3 7 8 9 7 8 9 11 8 8 9 9 7 7 6 9 5 1 3 1 2 0 2 2 2 4 5 1 3 4 5 6 6 5 4 5 12 7 3 5 6 8 8 9 9 9 10 10 11 10 8 8 9 9 9 7 7 7 6 7 6 7
2 2 2 3 4 4 4 6 4 1 4 2 6 1 3 2 6 7 3 8 7 5 6 6 4 5 8 8 9 9 7 6 10 10 11 10 10 9 9 6 5 10 7 2 1 1 2 3 2 4 3 0 2 4 5 7 6 4 4 10 6 3 5 6 7 7 8 9 10 9 9 10 11 10 9 9 8 7 7 7 7 6 6 7 7 7
4 5 3 2 1 3 3 2 3 3 2 2 3 6 6 8 7 6 5 6 7 7 5 6 8 6 6 9 10 9 6 4 3 5 6 8 8 8 8 8 8 7 6 9 8 2 3 5 6 4 3 1 3 3 5 4 6 5 6 6 3 5 6 6 7 8 8 9 9 10 10 9 9 9 9 8 8 8 8 7 7 7 5 6 6 6
2 2 1 2 5 3 5 8 3 2 3 4 6 8 8 9 9 7 6 6 6 8 6 8 11 11 8 6 7 8 7 7 6 7 8 7 7 7 6 8 9 6 6 5 6 5 4 2 1 1 3 1 2 4 4 4 6 6 8 2 4 5 6 6 7 7 8 7 7 7 6 8 7 7 7 7 7 8 8 9 9 8 6 6 6 6
2 2 2 4 1 2 4 1 3 4 3 4 5 5 6 6 7 5 6 8 10 10 10 10 10 10 8 5 7 9 10 7 6 5 3 5 7 6 7 7 6 6 7 9 7 4 6 4 4 4 4 4 4 5 4 5 7 9 4 3 3 5 6 7 7 7 6 8 7 5 6 8 8 7 6 5 5 4 5 5 6 6 7 7 7 6
2 2 1 3 1 3 5 5 6 5 5 4 5 4 6 7 6 6 7 8 9 9 9 11 9 9 5 6 8 8 9 7 5 7 6 5 4 5 7 9 7 10 9 6 6 4 3 5 7 5 5 6 6 5 6 6 8 8 4 3 5 5 6 6 7 8 8 8 7 7 7 7 9 9 7 7 7 7 6 5 6 7 8 8 8 7
2 2 3 3 4 5 4 6 8 10 6 7 7 6 7 7 7 8 8 7 6 7 9 10 8 10 7 8 6 6 8 9 6 5 5 4 3 7 8 5 10 7 7 10 9 6 6 3 5 8 6 8 6 6 6 8 8 6 6 6 6 7 7 8 7 7 6 5 5 7 6 6 6 7 8 7 7 7 7 8 9 9 7 6 7 9
0 4 1 2 6 6 7 6 1 5 5 5 5 5 5 5 4 6 7 9 8 8 8 10 11 8 7 8 8 7 9 10 7 4 6 6 6 4 4 6 5 5 5 4 4 5 6 5 6 5 8 10 5 6 7 8 8 6 5 6 6 7 8 7 6 6 7 6 7 7 6 6 7 6 6 6 6 6 5 4 6 7 8 9 10 11
6 4 3 7 5 9 3 5 5 6 5 6 7 7 7 5 4 5 8 9 10 10 9 8 10 11 10 9 7 8 10 9 10 5 5 7 8 5 2 3 5 6 6 4 6 9 9 9 7 6 7 10 7 6 7 7 7 5 6 7 8 9 9 8 7 7 7 7 7 9 9 8 7 7 7 8 8 7 7 5 2 6 8 3 2 6
Wind_Direction
80 92 195 215 223 222 236 187 197 196 150 103 110 134 255 52 287 278 3 52 57 89 121 201 125 183 222 205 179 182 187 214 230 235 243 246 243 242 249 250 252 247 181 177 162 167 177 173 171 181 172 154 154 167 178 184 189 189 190 190 195 180 177 172 162 167 157 152 128 105 189 193 190 194 195 197 201 200 197 182 179 171 167 156 152 150
69 47 276 224 219 207 195 200 175 80 75 141 130 87 358 201 337 328 342 351 330 160 341 348 175 264 11 176 181 179 193 216 222 235 244 247 249 249 251 259 256 260 120 148 126 152 165 167 160 158 163 158 163 195 188 191 194 189 192 202 190 170 182 186 181 173 176 176 175 163 178 164 164 181 184 196 190 193 189 181 180 176 169 167 167 163
35 199 245 236 173 127 84 69 49 108 91 47 124 133 75 274 247 288 321 357 340 86 298 115 128 307 297 204 187 198 208 229 220 225 237 238 254 257 251 253 264 277 253 161 172 161 165 162 159 162 175 184 187 186 194 191 190 193 195 202 186 179 183 188 186 181 183 184 147 132 172 153 147 249 159 154 162 157 161 182 186 182 179 175 180 176
31 290 258 288 137 117 76 46 74 62 56 94 63 62 162 240 81 309 316 28 4 134 164 140 96 336 9 176 204 204 217 231 219 213 231 225 244 250 251 251 258 260 270 252 167 173 169 169 168 166 177 188 186 191 189 193 199 199 198 195 188 187 190 183 191 191 174 144 127 99 117 83 91 157 145 96 56 90 123 178 196 198 191 188 184 181
189 239 110 75 102 131 111 45 87 79 68 345 111 124 146 52 203 149 272 347 329 30 87 96 51 336 264 210 230 225 195 226 243 239 245 245 239 250 269 263 241 248 249 269 223 172 164 167 177 182 180 164 181 188 189 194 201 200 200 192 185 190 191 186 192 180 157 130 87 81 73 81 80 44 38 73 82 135 214 194 190 210 190 195 196 193
312 279 135 72 56 57 94 76 210 122 86 331 240 174 188 190 136 253 336 44 20 359 19 86 38 295 293 285 249 224 186 231 213 219 241 241 246 246 250 253 261 257 238 232 249 193 177 185 187 177 167 169 179 188 195 196 202 195 184 175 178 186 187 187 186 166 161 165 155 134 130 121 94 105 106 166 197 216 221 219 240 216 199 192 189 192
194 352 50 150 117 99 78 149 216 112 153 97 227 178 189 164 127 114 85 85 24 156 305 64 145 258 329 270 237 206 236 246 257 233 250 245 242 236 244 249 253 256 259 235 224 149 150 166 165 185 182 186 179 189 185 192 196 191 178 172 178 183 185 182 181 172 169 164 168 176 179 175 178 186 230 217 208 186 220 212 243 232 230 204 194 194
45 326 54 51 82 89 91 326 216 139 117 224 240 132 116 124 145 201 133 146 192 250 269 51 98 180 304 287 295 260 220 253 260 253 253 248 237 238 241 245 247 252 255 258 246 194 170 175 178 185 193 183 186 178 172 180 184 189 184 178 177 180 186 188 181 180 177 175 179 176 182 183 181 188 212 204 210 202 186 183 229 236 248 231 198 193
163 344 96 60 79 99 186 211 175 142 120 220 171 140 150 198 210 137 116 127 114 134 268 330 3 44 249 263 307 290 226 255 249 249 253 251 242 237 240 243 246 248 255 256 259 229 177 179 187 185 185 189 177 169 172 177 182 182 179 181 178 182 185 188 185 186 185 181 179 182 179 195 202 194 213 201 198 177 225 242 298 278 265 255 243 210
272 198 206 144 140 256 234 236 164 144 99 246 124 81 80 65 62 69 100 111 25 79 267 249 219 208 278 285 354 357 264 261 251 243 242 243 246 243 241 242 243 248 251 248 252 255 209 164 180 191 181 169 177 180 178 175 168 177 174 179 180 188 189 185 186 186 190 189 177 178 182 190 201 197 198 165 194 208 180 217 245 243 249 237 236 239
267 318 185 128 190 210 168 176 170 171 79 109 82 65 9 40 18 16 63 78 63 332 257 240 274 168 292 257 193 147 212 206 234 266 260 252 248 248 243 242 236 235 238 242 251 257 254 141 144 151 163 187 189 183 178 178 181 177 178 182 185 196 193 182 185 184 193 192 182 186 186 191 195 199 186 178 208 199 177 216 236 219 231 207 212 200
352 13 141 243 94 117 111 74 37 29 63 108 106 119 71 343 7 28 341 33 114 273 263 279 208 130 190 295 273 237 258 230 206 228 244 245 238 237 236 240 239 231 233 235 238 251 260 245 131 150 164 182 194 183 183 188 187 185 187 183 193 201 194 188 183 187 195 193 194 192 187 189 197 188 184 188 207 202 201 204 235 242 208 232 203 194
323 211 274 321 223 139 111 90 316 24 13 82 83 45 90 272 38 277 8 274 218 200 272 348 55 7 245 223 248 277 249 252 215 220 229 236 247 244 243 243 256 236 216 217 228 230 235 244 191 175 184 183 188 193 189 190 186 189 192 189 193 206 199 193 183 189 197 195 198 196 193 196 192 185 186 190 199 205 195 191 200 186 217 204 219 218
280 290 339 263 15 185 124 133 198 64 5 111 124 126 79 53 32 257 279 238 310 287 265 286 313 249 253 292 240 245 259 256 273 252 262 269 258 263 262 277 241 227 217 224 220 218 224 230 224 199 205 195 194 196 191 187 184 187 192 192 195 209 198 194 185 193 195 201 201 198 196 198 189 189 188 192 191 199 193 183 194 213 216 212 221 221
357 341 299 140 229 312 159 169 177 172 159 211 129 132 182 148 160 243 207 222 218 210 286 282 57 236 77 241 220 230 261 284 272 267 254 245 249 254 263 253 220 221 226 214 214 215 217 222 217 215 226 227 194 186 189 189 188 186 195 192 197 205 205 193 193 191 201 204 203 200 200 197 188 192 186 193 194 188 189 184 183 198 196 212 237 219
205 211 257 243 71 134 175 190 128 101 58 315 167 95 88 233 146 224 209 157 249 271 335 203 216 187 189 255 282 286 292 293 299 303 296 269 269 265 266 250 230 221 224 217 223 224 223 217 207 210 230 239 231 189 187 194 192 191 200 196 198 198 197 195 195 199 197 200 195 197 196 200 194 197 185 177 176 188 177 169 171 186 196 215 247 269
24 296 270 314 94 166 185 135 240 128 204 251 106 202 209 148 100 89 76 23 34 46 259 171 321 290 304 323 305 333 344 293 317 319 346 291 274 248 242 243 234 224 219 219 222 224 224 214 208 210 218 232 236 214 196 200 196 198 197 194 203 209 204 198 201 199 188 185 182 196 198 192 186 179 174 180 182 173 168 159 169 166 188 193 208 243
140 240 295 88 191 1 275 144 98 46 144 90 164 233 170 130 119 127 201 346 53 180 259 45 230 289 39 276 321 343 341 289 294 284 290 290 293 256 246 239 231 227 223 227 238 244 240 221 219 221 227 227 230 228 215 207 200 202 197 194 196 200 203 213 209 200 182 178 185 187 191 190 183 178 181 171 171 165 143 152 146 143 150 195 201 210
127 312 295 283 284 277 354 169 25 357 30 148 197 177 110 266 248 327 92 315 194 260 273 312 293 265 183 249 333 297 266 281 280 286 265 256 252 241 248 246 236 236 235 231 232 234 234 223 219 217 223 224 228 230 225 212 186 194 203 204 199 201 205 203 193 191 185 180 186 185 187 184 180 178 169 175 158 158 162 166 159 163 178 142 165 175
47 179 293 303 137 292 5 76 216 263 352 28 93 74 329 106 162 138 195 178 126 252 63 289 39 241 208 220 202 248 243 245 268 296 273 238 220 232 237 246 238 219 221 227 231 234 234 232 226 222 223 225 224 226 230 219 176 194 201 199 205 209 207 194 189 191 193 188 178 181 166 174 178 173 172 174 163 169 174 168 156 158 150 159 141 138
137 126 235 277 287 326 202 174 209 169 146 48 82 309 356 32 213 98 42 134 187 179 185 211 298 273 256 213 186 227 229 230 218 240 251 259 250 229 235 237 240 229 224 225 227 231 235 238 238 233 229 233 236 231 228 220 212 210 187 196 202 202 202 199 200 187 193 171 176 164 172 180 176 189 183 170 175 166 171 161 164 170 157 128 140 149
90 124 201 312 20 216 234 248 204 185 178 169 164 198 171 121 143 212 260 24 104 125 219 146 241 264 270 182 207 219 236 227 229 218 238 257 260 258 239 233 226 232 231 226 225 226 233 238 242 243 235 234 225 225 221 220 211 214 208 207 196 198 197 172 116 117 108 140 160 173 188 192 195 193 176 170 172 165 166 170 182 169 135 142 175 155
145 154 98 193 198 210 225 215 198 176 130 172 153 227 166 133 108 105 178 265 23 258 120 170 201 270 241 205 205 218 232 250 297 282 268 266 265 262 256 241 230 224 228 226 227 229 233 235 236 235 234 231 228 234 231 219 209 213 213 205 193 167 152 151 158 159 156 149 124 61 14 345 315 217 181 171 170 175 179 184 178 166 152 154 156 166
120 78 141 287 306 302 317 314 86 98 126 79 16 75 116 174 179 177 182 183 156 132 268 291 217 251 288 227 242 256 272 273 264 225 243 271 278 277 261 255 245 234 239 239 240 241 238 239 243 242 237 229 226 227 226 222 217 219 212 185 150 162 173 172 165 142 127 128 128 123 117 113 359 324 296 182 186 190 204 189 172 161 150 160 155 148
85 287 132 37 2 343 340 344 12 336 61 150 186 225 170 98 77 128 105 65 207 212 185 154 246 279 271 317 293 264 274 266 253 239 212 247 268 268 271 266 260 254 255 239 229 230 239 243 232 229 229 230 230 230 230 225 219 214 192 154 172 179 163 123 103 105 87 51 28 85 154 148 125 119 294 277 209 217 220 206 171 168 159 155 160 153
122 196 116 180 211 241 256 230 262 280 234 237 182 236 233 148 144 121 208 106 199 275 154 179 259 248 273 313 314 308 309 291 272 243 233 223 240 255 267 271 263 249 245 239 235 221 221 222 230 239 235 231 230 228 227 224 219 203 177 185 174 136 112 120 116 105 118 135 168 187 181 167 171 185 199 207 188 200 228 214 189 185 184 171 159 148
151 108 155 166 171 201 207 221 246 115 42 192 266 172 210 100 93 96 102 112 209 215 190 232 213 272 298 292 297 277 279 249 271 280 243 233 236 242 251 261 262 252 243 239 234 230 240 249 234 231 232 230 230 225 221 214 206 191 188 168 113 120 127 128 123 114 87 234 227 196 194 192 197 196 179 191 183 185 234 215 202 191 191 187 162 160
81 179 244 173 204 209 202 217 209 157 231 238 213 258 222 96 153 145 163 219 178 94 269 245 214 211 242 249 253 262 268 272 262 261 274 271 250 226 227 241 264 271 265 264 263 237 228 232 238 236 232 228 229 216 214 207 197 190 182 138 136 153 158 167 166 170 177 197 209 215 205 195 192 176 182 196 204 199 195 195 196 197 186 163 166 171
142 180 261 128 244 229 221 236 204 183 202 204 188 190 219 183 161 197 228 209 139 193 249 237 210 219 242 232 237 238 236 237 239 242 240 253 283 281 254 238 241 244 249 246 243 236 234 237 232 231 228 226 214 208 206 201 193 186 158 142 162 173 188 183 190 202 194 192 201 215 210 179 159 175 199 201 202 195 190 192 192 183 176 178 180 181
91 252 193 151 299 323 283 239 246 208 254 194 205 212 215 183 216 224 242 191 191 233 244 252 235 231 229 244 240 240 234 234 250 292 321 269 242 237 231 232 231 237 239 236 236 234 231 234 236 235 231 218 206 206 202 201 197 189 172 168 177 192 192 161 183 189 191 195 204 205 191 172 170 188 204 200 200 207 200 192 184 177 177 184 184 176
134 266 155 148 87 281 282 318 221 205 197 256 265 274 223 227 255 265 250 243 228 271 258 254 258 262 246 243 256 260 266 283 305 278 262 256 256 246 238 238 237 234 237 239 240 240 235 235 241 246 235 224 208 207 203 206 199 181 168 176 188 204 201 176 186 193 192 203 208 201 186 182 186 185 196 202 202 204 200 196 180 175 179 177 178 177
57 246 54 79 254 295 285 266 268 270 232 223 239 222 241 239 260 230 234 215 195 250 263 262 267 268 261 240 254 262 266 260 253 256 260 258 245 240 238 241 240 240 238 239 238 236 236 233 234 232 231 229 215 204 204 205 197 177 184 182 192 204 192 187 191 195 203 211 209 200 193 196 191 188 195 186 203 204 202 187 176 180 181 177 183 194
162 132 177 162 241 245 261 208 278 308 327 272 193 214 223 225 220 245 248 236 222 232 258 268 256 250 267 249 221 257 238 249 252 250 256 260 255 235 230 234 238 239 239 237 237 232 229 227 226 225 228 230 219 204 210 199 184 197 186 184 194 180 193 202 201 203 208 209 208 208 206 200 194 194 189 191 196 194 183 183 182 183 178 191 197 175
105 145 192 159 213 241 252 324 359 6 257 249 221 193 197 218 218 233 247 238 240 191 228 237 259 316 301 285 245 258 255 236 230 243 226 235 253 250 235 236 236 235 237 241 238 236 233 233 236 230 226 225 226 215 197 188 198 203 175 175 174 186 198 200 208 210 216 214 213 212 208 204 200 197 194 186 182 179 182 182 190 191 191 186 176 190
157 134 191 163 197 263 248 82 343 254 261 221 338 247 211 220 216 223 241 247 252 240 250 268 269 269 261 260 259 261 265 277 288 275 273 245 228 237 238 231 233 235 237 238 240 236 232 229 233 239 238 235 231 212 162 192 204 168 158 167 178 190 193 202 206 211 214 217 220 216 210 205 202 202 185 172 174 179 185 188 187 186 191 187 192 195
169 170 154 186 155 82 100 139 230 261 162 353 286 232 213 133 252 319 286 266 252 242 235 244 250 260 265 271 277 272 275 278 286 268 255 258 226 225 228 235 233 229 231 230 228 232 227 225 225 224 227 232 226 182 183 198 172 171 179 171 179 186 194 197 203 212 208 214 214 211 207 198 197 189 176 174 179 187 191 187 182 194 195 197 209 216
176 95 123 258 152 219 181 192 236 332 309 233 245 252 164 201 178 180 249 267 239 234 181 215 262 271 284 282 279 297 287 285 284 284 257 239 244 220 222 229 231 229 223 232 220 230 226 229 227 231 243 248 192 194 206 178 165 173 166 177 187 185 192 193 203 211 209 213 209 205 201 196 190 185 182 181 181 185 178 163 201 222 192 198 208 207
168 181 210 189 258 161 233 278 298 308 276 271 231 331 9 318 192 202 198 281 350 34 1 331 289 309 331 327 324 318 310 14 329 296 300 322 271 248 230 234 244 240 231 235 235 242 251 244 233 230 204 226 228 221 196 162 167 165 175 186 184 182 188 192 205 208 207 213 211 205 197 193 188 185 179 176 181 183 186 181 197 207 188 199 203 209
36 98 141 173 225 71 168 230 251 255 252 194 354 335 318 328 64 126 53 277 331 3 353 9 347 334 328 308 308 330 10 336 267 272 285 326 325 279 248 245 241 240 237 230 220 225 235 235 221 223 202 210 232 234 193 169 162 166 182 184 183 185 186 198 206 203 205 211 208 202 192 185 182 179 179 188 192 187 167 149 199 210 192 207 202 212
80 55 97 181 213 193 178 226 245 211 235 51 226 286 305 320 352 62 275 274 274 327 330 355 355 328 315 309 299 331 279 274 283 293 304 306 304 285 244 253 252 243 243 243 252 239 236 201 144 170 196 202 229 216 173 166 163 181 187 188 177 181 196 203 206 205 205 202 190 182 174 173 174 175 180 186 134 148 151 175 228 216 203 209 203 214
84 4 132 210 197 212 202 253 299 298 301 13 316 287 279 289 64 223 236 243 299 314 325 340 331 310 299 305 311 312 242 232 274 286 299 299 312 314 290 258 252 232 229 206 218 182 153 173 176 186 193 210 199 145 158 155 166 192 202 175 169 199 207 209 205 196 192 179 173 175 180 180 181 181 186 175 171 156 155 205 215 204 204 207 206 212
342 101 311 72 166 198 203 213 246 267 224 306 288 294 282 14 253 243 335 302 259 307 301 308 310 304 308 301 287 262 280 279 273 283 293 309 331 314 316 296 174 28 85 184 166 167 174 159 185 222 255 244 162 145 146 154 171 206 185 173 202 216 214 197 183 175 167 171 176 177 175 176 185 191 183 174 169 170 194 211 198 198 204 197 189 201
203 148 218 185 217 59 107 215 274 266 107 17 347 345 8 169 253 314 295 311 309 305 321 324 309 307 307 298 302 300 302 308 316 313 322 328 348 338 330 334 329 160 177 186 161 186 134 153 233 234 243 236 153 149 164 160 189 202 177 191 228 222 173 172 168 167 169 169 170 176 181 184 182 180 180 187 191 185 198 186 184 192 181 179 181 191
198 168 221 255 175 175 173 197 207 181 171 63 48 195 244 224 272 284 301 294 303 288 289 290 255 260 280 279 285 285 285 301 333 337 336 340 345 343 341 333 335 327 318 288 256 225 154 195 251 264 277 175 170 160 165 170 188 190 180 230 228 133 158 161 165 160 164 173 180 178 181 188 189 188 185 187 185 192 193 183 186 181 185 182 182 188
202 178 179 179 246 152 211 212 239 181 164 158 192 231 229 247 244 236 231 243 273 293 280 291 285 268 265 283 290 285 295 313 306 308 331 322 328 334 335 325 308 304 308 313 307 287 187 197 219 248 276 250 185 184 176 181 170 178 208 241 157 175 161 164 158 168 175 180 183 186 190 185 186 189 193 191 176 180 190 184 166 180 187 165 177 182
343 117 169 93 255 242 256 238 273 279 221 226 206 214 228 242 244 246 256 272 268 262 267 270 280 282 279 271 286 298 291 301 330 343 336 331 335 333 332 334 337 334 322 318 315 319 276 240 252 217 248 269 208 185 188 188 170 177 224 195 165 159 155 149 159 171 186 185 188 196 181 176 186 190 192 185 187 196 189 181 181 185 174 174 183 185
234 148 105 177 257 91 275 118 178 222 233 229 236 235 238 242 255 249 255 253 261 269 274 265 260 267 264 268 268 277 293 305 313 296 318 325 335 332 334 333 330 330 333 328 314 347 319 286 219 226 217 234 223 194 197 194 208 220 220 166 162 152 152 161 168 181 182 190 189 177 177 175 181 192 196 186 180 183 178 177 180 174 169 181 184 188
307 155 98 210 197 179 234 229 242 247 239 246 233 257 271 268 251 245 238 249 259 268 266 268 270 269 254 262 260 269 283 293 300 310 314 313 318 321 328 334 337 340 346 335 318 316 313 293 269 233 210 235 225 194 194 203 218 225 205 163 161 156 156 168 180 183 193 193 183 182 187 190 192 185 189 192 181 181 179 186 177 181 186 184 190 185
173 118 243 166 201 261 315 289 275 280 291 262 250 248 247 254 267 280 285 282 270 269 272 271 254 253 257 252 254 256 269 276 270 276 283 281 289 338 328 315 314 330 326 341 342 332 303 273 279 282 252 234 224 187 195 213 224 214 191 179 164 161 170 188 193 194 195 185 176 195 197 195 184 190 192 193 195 202 194 185 187 192 202 210 186 188
243 240 245 297 280 265 239 254 231 299 291 296 285 263 263 244 227 262 284 292 291 285 280 279 283 270 246 250 250 245 250 265 270 258 273 273 272 205 252 294 287 286 301 305 317 316 310 293 274 269 275 270 243 200 205 216 223 211 187 166 167 166 184 190 184 188 196 188 195 200 190 198 199 196 189 182 183 193 221 229 195 194 187 210 209 207
203 218 171 229 227 266 219 226 226 234 262 250 261 280 282 284 282 275 276 281 288 284 277 277 281 290 285 268 240 233 245 249 260 244 252 272 274 280 236 258 277 291 294 318 336 334 337 317 304 285 269 264 270 246 225 224 226 203 186 179 176 179 187 176 178 193 197 188 202 199 199 199 197 191 186 186 190 193 194 199 257 249 249 277 118 187